Weather History for KCUT - July, 2012

Change the Weather History Date:

Monday, July 2, 2012

  Actual Average Record
Temperature  
Mean Temperature 76 °F 64 °F  
Max Temperature 89 °F 77 °F - ()
Min Temperature 63 °F 51 °F - ()
Degree Days  
Heating Degree Days 0 3  
Month to date heating degree days 0 6  
Since 1 June heating degree days 104 226  
Since 1 July heating degree days 0 6  
Cooling Degree Days 11 2  
Month to date cooling degree days 15 4  
Year to date cooling degree days 88 30  
Since 1 June cooling degree days 88 29  
Growing Degree Days 26 (Base 50)    
Moisture  
Dew Point 48 °F    
Average Humidity 44    
Maximum Humidity 67    
Minimum Humidity 21    
Precipitation  
Precipitation 0.01 in 0.07 in - ()
Month to date precipitation 0.01 0.15  
Year to date precipitation 7.28 10.48  
Sea Level Pressure  
Sea Level Pressure 29.79 in    
Wind  
Wind Speed 6 mph (NW)    
Max Wind Speed 17 mph    
Max Gust Speed 32 mph    
Visibility 9 miles    
Events      
T = Trace of Precipitation, MM = Missing Value Source: NWS Daily Summary

Daily Weather History Graph

Daily Weather History Graph

Search for Another Location

Airport or City:

Trip Planner

Search our weather history database for the weather conditions in past years. The results will help you decide how hot, cold, wet, or windy it might be!

Date:

Astronomy

Jul. 02, 2012 Rise Set
Actual Time 5:17 AM MDT 8:39 PM MDT
Civil Twilight 4:41 AM MDT 9:15 PM MDT
Nautical Twilight 3:54 AM MDT 10:01 PM MDT
Astronomical Twilight 2:56 AM MDT 11:00 PM MDT
Moon 7:43 PM MDT (7/2) 4:07 AM MDT (7/2)
Length of Visible Light 16h 33m
Length of Day
15h 22m
Waxing Gibbous, 98% of the Moon is Illuminated
Jul 2
Waxing Gibbous
Jul 3
Full
Jul 10
Last Quarter
Jul 18
New
Jul 26
First Quarter

Hourly Weather History & Observations

Time (MDT) Temp. Dew Point Humidity Pressure Visibility Wind Dir Wind Speed Gust Speed Precip Events Conditions
12:53 AM 70.0 °F 44.1 °F 39% 29.78 in 10.0 mi SW 3.5 mph - N/A   Clear
1:53 AM 73.9 °F 46.0 °F 37% 29.73 in 10.0 mi SSW 9.2 mph 17.3 mph N/A   Partly Cloudy
2:53 AM 72.0 °F 46.0 °F 40% 29.72 in 10.0 mi Variable 3.5 mph - N/A   Scattered Clouds
3:53 AM 64.9 °F 54.0 °F 68% 29.72 in 10.0 mi West 3.5 mph - 0.01 in   Clear
4:53 AM 66.9 °F 50.0 °F 54% 29.73 in 10.0 mi WSW 3.5 mph - N/A   Partly Cloudy
5:53 AM 64.0 °F 48.9 °F 58% 29.75 in 10.0 mi West 4.6 mph - N/A   Clear
6:53 AM 64.9 °F 51.1 °F 61% 29.75 in 10.0 mi WSW 3.5 mph - N/A   Clear
7:53 AM 75.9 °F 46.9 °F 36% 29.76 in 10.0 mi West 4.6 mph - N/A   Clear
8:53 AM 81.0 °F 46.0 °F 29% 29.76 in 8.0 mi West 9.2 mph - N/A   Clear
9:53 AM 84.0 °F 45.0 °F 25% 29.76 in 7.0 mi NNW 8.1 mph - N/A   Clear
10:53 AM 87.1 °F 43.0 °F 21% 29.78 in 4.0 mi Variable 6.9 mph - N/A   Haze
11:53 AM 88.0 °F 45.0 °F 22% 29.78 in 4.0 mi Variable 6.9 mph - N/A   Haze
12:53 PM 86.0 °F 48.9 °F 28% 29.80 in 4.0 mi Variable 5.8 mph 17.3 mph N/A   Haze
1:53 PM 87.1 °F 50.0 °F 28% 29.78 in 5.0 mi South 10.4 mph - N/A   Haze
2:53 PM 86.0 °F 52.0 °F 31% 29.80 in 10.0 mi SSE 10.4 mph 17.3 mph N/A   Clear
3:53 PM 82.0 °F 52.0 °F 35% 29.83 in 10.0 mi NE 6.9 mph - N/A   Mostly Cloudy
4:53 PM 82.0 °F 43.0 °F 25% 29.83 in 10.0 mi NE 13.8 mph - N/A   Clear
5:53 PM 81.0 °F 48.9 °F 33% 29.84 in 10.0 mi East 8.1 mph - N/A   Clear
6:53 PM 79.0 °F 50.0 °F 36% 29.84 in 10.0 mi ENE 8.1 mph - N/A   Mostly Cloudy
7:53 PM 73.9 °F 48.9 °F 41% 29.82 in 10.0 mi NNE 3.5 mph - N/A   Clear
8:53 PM 71.1 °F 50.0 °F 47% 29.82 in 10.0 mi Calm Calm - N/A   Clear
9:53 PM 66.9 °F 50.0 °F 54% 29.85 in 10.0 mi NE 4.6 mph - N/A   Clear
10:53 PM 64.0 °F 50.0 °F 60% 29.83 in 10.0 mi North 4.6 mph - N/A   Clear
11:53 PM 70.0 °F 52.0 °F 53% 29.84 in 10.0 mi ENE 5.8 mph - N/A   Clear